Location: Kings Park
(40.8862°N, 73.2573°W)
Time: 05:40:43
(UTC+00:00)

Cosmos 2219 - Pass Details

Date: 29 October 2020
Orbit: 832 x 862 km, 71.1° (Epoch: 29 November)

Event Time Altitude Azimuth Distance (km) Brightness Sun altitude
Rises 23:10:58 0° 332° (NNW) 3,445 6.7 -15.4°
Reaches altitude 10° 23:13:27 10° 329° (NNW) 2,506 6.0 -15.9°
Maximum altitude 23:19:06 59° 251° (WSW) 989 3.8 -17.0°
Drops below altitude 10° 23:24:43 10° 173° (S) 2,487 5.6 -18.0°
Sets 23:27:11 0° 170° (S) 3,417 6.3 -18.5°
